Tracking 17147 objects as of 3-July-2015
HD Live streaming from Space Station

COSMOS 1023

Track COSMOS 1023 now!
10-day predictions
COSMOS 1023 is classified as:


NORAD ID: 10961
Int'l Code: 1978-063A
Perigee: 765.4 km
Apogee: 790.2 km
Inclination: 74.1 °
Period: 100.3 minutes
Semi major axis: 7148 km
RCS: 3.0969 m2 (large)
Launch date: June 21, 1978
Source: Commonwealth of Independent States (former USSR) (CIS)
Your satellite tracking list
Your tracking list is empty





NASA's NSSDC Master Catalog

Two Line Element Set (TLE):
1 10961U 78063A   15183.52492619  .00000063  00000-0  30543-4 0  9995
2 10961 074.0752 226.6119 0017307 320.7913 039.1985 14.36326757938373

Source of the keplerian elements: AFSPC

N2YO: 262